This demonstration page uses our WeatherBlox Daily Observations layout. Learn more.

Left ArrowRight Arrow

Hourly Observations for June 11, 2018

Temp ( °F °C ) Dew Point ( °F °C ) Humidity (%) Winds ( mph kmh ) Pressure ( in mb ) Visibility ( mi km ) Precip ( " mm )
12:56 am 00:56 Clear 80 26.7 63 17.2 56 56 S 20 31 29.52 1000 10 16 0.00 0.00
1:56 am 01:56 Clear 79 26.1 65 18.3 62 62 SSE 16 26 29.52 1000 10 16 0.00 0.00
2:56 am 02:56 Clear 77 25 66 18.9 69 69 S 16 26 29.51 999 10 16 0.00 0.00
3:56 am 03:56 Clear 77 25 65 18.3 66 66 S 18 30 29.50 999 10 16 0.00 0.00
4:56 am 04:56 Clear 75 23.9 64 17.8 69 69 S 16 26 29.51 999 10 16 0.00 0.00
5:56 am 05:56 Clear 75 23.9 62 16.7 64 64 NW 5 7 29.57 1002 10 16 0.00 0.00
6:56 am 06:56 Sunny 73 22.8 63 17.2 71 71 SSW 3 6 29.59 1002 10 16 0.00 0.00
7:56 am 07:56 Sunny 76 24.4 64 17.8 67 67 SW 3 6 29.61 1003 10 16 0.00 0.00
8:56 am 08:56 Sunny 78 25.6 63 17.2 60 60 WNW 15 24 29.63 1003 10 16 0.00 0.00
9:56 am 09:56 Sunny 76 24.4 61 16.1 60 60 NNW 20 31 29.67 1005 10 16 0.00 0.00
10:13 am 10:13 Mostly Sunny 75 24 61 16 61 61 NNW 18 30 29.65 1004 10 16 0.00 0.00
10:56 am 10:56 Sunny 77 25 61 16.1 58 58 NNW 17 28 29.69 1006 10 16 0.00 0.00
11:56 am 11:56 Sunny 78 25.6 62 16.7 58 58 N 18 30 29.71 1006 10 16 0.00 0.00
12:56 pm 12:56 Sunny 81 27.2 63 17.2 54 54 NNW 16 26 29.73 1007 10 16 0.00 0.00
1:56 pm 13:56 Sunny 84 28.9 64 17.8 51 51 NNW 17 28 29.72 1007 10 16 0.00 0.00
2:56 pm 14:56 Mostly Cloudy 82 27.8 65 18.3 56 56 NNW 21 33 29.74 1007 10 16 0.00 0.00
3:56 pm 15:56 Mostly Cloudy 81 27.2 64 17.8 57 57 N 18 30 29.76 1008 10 16 0.00 0.00
4:56 pm 16:56 Mostly Sunny 81 27.2 63 17.2 54 54 N 17 28 29.77 1008 9 14 0.00 0.00
5:56 pm 17:56 Sunny 80 26.7 64 17.8 58 58 N 21 33 29.76 1008 10 16 0.00 0.00
6:56 pm 18:56 Sunny 79 26.1 64 17.8 60 60 N 18 30 29.76 1008 10 16 0.00 0.00
7:06 pm 19:06 Mostly Sunny 79 26 64 18 61 61 N 17 28 29.71 1006 9 14 0.00 0.00
7:56 pm 19:56 Sunny 76 24.4 63 17.2 64 64 N 16 26 29.76 1008 10 16 0.00 0.00
8:56 pm 20:56 Sunny 73 22.8 62 16.7 69 69 NNE 12 19 29.80 1009 10 16 0.00 0.00
9:56 pm 21:56 Clear 69 20.6 62 16.7 78 78 NE 8 13 29.83 1010 10 16 0.00 0.00
10:56 pm 22:56 Clear 67 19.4 62 16.7 84 84 N 6 9 29.85 1011 10 16 0.00 0.00
11:56 pm 23:56 Clear 66 18.9 61 16.1 84 84 NNW 7 11 29.86 1011 10 16 0.00 0.00

Powered by AerisWeather